Location: Laas
(43.4693°N, 0.3073°E)
Time: 15:20:11
(UTC+00:00)

CZ-2C R/B - Pass Details

Date: 25 October 2020
Orbit: 703 x 909 km, 98.1° (Epoch: 24 November)

Event Time Altitude Azimuth Distance (km) Brightness Sun altitude
Rises 19:14:03 0° 182° (S) 3,522 6.4 -25.0°
Reaches altitude 10° 19:16:34 10° 188° (S) 2,585 5.7 -25.5°
Maximum altitude 19:22:09 48° 262° (W) 1,166 4.2 -26.5°
Drops below altitude 10° 19:27:40 10° 336° (NNW) 2,547 6.1 -27.5°
Sets 19:30:08 0° 342° (NNW) 3,466 6.7 -27.9°
